Date String (YYYY-MM-DD hh:mm:ss) UTC,Instrument flags,Ambient pressure (hPa),Sample flow (lpm),Bypass flow (lpm),Sample temperature (°C),Ambient temperature (°C),ASC tube jacket temperature (°C),LED temperature (°C),Box temperature (°C),Sample RH (%),Span deviation,Mass concentration (μg/m³),Mass concentration (μg/m³),Mass concentration (μg/m³)
DateTimeUTC,F1_M11,P_M11,Q1_M11,Q2_M11,T1_M11,T2_M11,T3_M11,T4_M11,T5_M11,U1_M11,ZSPAN_M11,X2_M11,X0_M11,X1_M11
2021-10-29 10:00:00,,0830.3,5.00,0.00,25.6,24.5,00.0,34.7,27.3,12.6,0000.0,0000.60,0000.91,0000.52
2021-10-29 10:01:00,,0830.2,4.99,0.00,25.6,24.6,00.0,34.7,27.4,12.5,0000.0,0000.59,0000.89,0000.51
2021-10-29 10:02:00,,0830.3,5.01,0.00,25.6,24.5,00.0,34.7,27.4,12.5,0000.0,0000.60,0000.95,0000.51
2021-10-29 10:03:00,,0830.2,4.99,0.00,25.6,24.5,00.0,34.7,27.3,12.5,0000.0,0000.58,0000.93,0000.50
2021-10-29 10:04:00,,0830.2,5.01,0.00,25.6,24.5,00.0,34.7,27.4,12.5,0000.0,0000.55,0000.88,0000.49
2021-10-29 10:05:00,,0830.3,5.00,0.00,25.6,24.5,00.0,34.7,27.4,12.5,0000.0,0000.55,0000.85,0000.48
2021-10-29 10:06:00,,0830.2,4.99,0.00,25.6,24.5,00.0,34.7,27.3,12.5,0000.0,0000.53,0000.83,0000.48
2021-10-29 10:07:00,,0830.2,5.00,0.00,25.6,24.5,00.0,34.7,27.3,12.5,0000.0,0000.51,0000.80,0000.47
2021-10-29 10:08:00,,0830.2,5.01,0.00,25.6,24.5,00.0,34.7,27.3,12.5,0000.0,0000.51,0000.79,0000.47
2021-10-29 10:09:00,,0830.2,5.00,0.00,25.6,24.5,00.0,34.7,27.3,12.5,0000.0,0000.52,0000.74,0000.47
2021-10-29 10:10:00,,0830.2,5.01,0.00,25.6,24.5,00.0,34.7,27.3,12.5,0000.0,0000.55,0000.84,0000.47
2021-10-29 10:11:00,,0830.2,5.00,0.00,25.6,24.5,00.0,34.7,27.4,12.5,0000.0,0000.56,0000.91,0000.46
2021-10-29 10:12:00,,0830.2,4.99,0.00,25.6,24.5,00.0,34.7,27.4,12.5,0000.0,0000.56,0000.92,0000.46
2021-10-29 10:13:00,,0830.1,5.01,0.00,25.6,24.5,00.0,34.7,27.3,12.6,0000.0,0000.54,0000.86,0000.46
2021-10-29 10:14:00,,0830.1,5.00,0.00,25.6,24.5,00.0,34.7,27.3,12.6,0000.0,0000.54,0000.82,0000.46
2021-10-29 10:15:00,,0830.1,5.00,0.00,25.6,24.6,00.0,34.7,27.3,12.5,0000.0,0000.58,0000.91,0000.46
2021-10-29 10:16:00,,0830.1,5.01,0.00,25.6,24.6,00.0,34.7,27.4,12.5,0000.0,0000.60,0000.98,0000.46
2021-10-29 10:17:00,,0830.1,5.01,0.00,25.6,24.6,00.0,34.7,27.4,12.4,0000.0,0000.61,0001.00,0000.46
2021-10-29 10:18:00,,0830.1,4.99,0.00,25.6,24.6,00.0,34.6,27.4,12.4,0000.0,0000.62,0001.02,0000.47
2021-10-29 10:19:00,,0830.1,5.01,0.00,25.6,24.5,00.0,34.6,27.4,12.3,0000.0,0000.64,0001.05,0000.47
2021-10-29 10:20:00,,0830.1,5.00,0.00,25.6,24.5,00.0,34.6,27.4,12.3,0000.0,0000.65,0001.06,0000.46
2021-10-29 10:21:00,,0830.1,5.00,0.00,25.6,24.5,00.0,34.6,27.4,12.3,0000.0,0000.65,0001.03,0000.46
2021-10-29 10:22:00,,0830.1,5.00,0.00,25.6,24.5,00.0,34.6,27.4,12.3,0000.0,0000.63,0000.98,0000.46
2021-10-29 10:23:00,,0830.1,5.02,0.00,25.5,24.5,00.0,34.6,27.4,12.3,0000.0,0000.63,0000.98,0000.45
2021-10-29 10:24:00,,0830.1,5.00,0.00,25.5,24.5,00.0,34.6,27.4,12.3,0000.0,0000.63,0000.97,0000.45
2021-10-29 10:25:00,,0830.1,5.00,0.00,25.5,24.6,00.0,34.6,27.4,12.2,0000.0,0000.61,0000.95,0000.44
2021-10-29 10:26:00,,0830.1,5.00,0.00,25.5,24.5,00.0,34.6,27.3,12.3,0000.0,0000.58,0000.85,0000.44
2021-10-29 10:27:00,,0830.1,5.01,0.00,25.5,24.5,00.0,34.6,27.3,12.3,0000.0,0000.55,0000.81,0000.43
2021-10-29 10:28:00,,0830.0,5.00,0.00,25.5,24.5,00.0,34.6,27.3,12.3,0000.0,0000.56,0000.85,0000.43
2021-10-29 10:29:00,,0830.0,5.00,0.00,25.5,24.5,00.0,34.6,27.3,12.3,0000.0,0000.55,0000.83,0000.43
2021-10-29 10:30:00,,0829.9,5.00,0.00,25.5,24.5,00.0,34.6,27.4,12.3,0000.0,0000.53,0000.80,0000.43
2021-10-29 10:31:00,,0829.9,5.02,0.00,25.5,24.5,00.0,34.6,27.4,12.2,0000.0,0000.50,0000.74,0000.43
2021-10-29 10:32:00,,0829.9,5.00,0.00,25.5,24.5,00.0,34.6,27.3,12.2,0000.0,0000.47,0000.68,0000.43
2021-10-29 10:33:00,,0829.9,5.00,0.00,25.5,24.5,00.0,34.6,27.3,12.2,0000.0,0000.46,0000.64,0000.43
2021-10-29 10:34:00,,0830.0,5.01,0.00,25.5,24.5,00.0,34.6,27.3,12.3,0000.0,0000.46,0000.63,0000.42
2021-10-29 10:35:00,,0830.0,4.99,0.00,25.5,24.5,00.0,34.6,27.3,12.3,0000.0,0000.48,0000.67,0000.42
2021-10-29 10:36:00,,0830.0,4.99,0.00,25.5,24.5,00.0,34.6,27.3,12.2,0000.0,0000.49,0000.69,0000.43
2021-10-29 10:37:00,,0830.0,5.00,0.00,25.5,24.5,00.0,34.6,27.3,12.2,0000.0,0000.49,0000.71,0000.43
2021-10-29 10:38:00,,0830.0,5.00,0.00,25.5,24.5,00.0,34.6,27.3,12.2,0000.0,0000.51,0000.75,0000.42
2021-10-29 10:39:00,,0830.0,4.99,0.00,25.5,24.5,00.0,34.6,27.3,12.2,0000.0,0000.49,0000.67,0000.42
2021-10-29 10:40:00,,0830.0,5.00,0.00,25.5,24.5,00.0,34.6,27.3,12.2,0000.0,0000.49,0000.66,0000.42
2021-10-29 10:41:00,,0830.1,4.99,0.00,25.5,24.5,00.0,34.6,27.3,12.3,0000.0,0000.49,0000.67,0000.42
2021-10-29 10:42:00,,0830.1,5.01,0.00,25.5,24.5,00.0,34.6,27.3,12.3,0000.0,0000.50,0000.69,0000.42
2021-10-29 10:43:00,,0830.1,5.00,0.00,25.5,24.5,00.0,34.6,27.3,12.3,0000.0,0000.50,0000.70,0000.42
2021-10-29 10:44:00,,0830.1,5.01,0.00,25.5,24.5,00.0,34.6,27.3,12.3,0000.0,0000.52,0000.73,0000.42
2021-10-29 10:45:00,,0830.1,5.00,0.00,25.5,24.5,00.0,34.6,27.3,12.3,0000.0,0000.52,0000.74,0000.42
2021-10-29 10:46:00,,0830.1,4.99,0.00,25.5,24.5,00.0,34.6,27.4,12.3,0000.0,0000.50,0000.71,0000.42
2021-10-29 10:47:00,,0830.2,5.01,0.00,25.5,24.5,00.0,34.6,27.3,12.2,0000.0,0000.50,0000.70,0000.41
2021-10-29 10:48:00,,0830.1,4.99,0.00,25.5,24.5,00.0,34.6,27.4,12.3,0000.0,0000.51,0000.73,0000.42
2021-10-29 10:49:00,,0830.1,5.00,0.00,25.5,24.6,00.0,34.6,27.4,12.3,0000.0,0000.51,0000.74,0000.42
2021-10-29 10:50:00,,0830.1,5.00,0.00,25.5,24.6,00.0,34.6,27.4,12.3,0000.0,0000.52,0000.79,0000.42
2021-10-29 10:51:00,,0830.1,5.00,0.00,25.5,24.6,00.0,34.6,27.4,12.3,0000.0,0000.51,0000.78,0000.42
2021-10-29 10:52:00,,0830.1,5.00,0.00,25.5,24.6,00.0,34.6,27.4,12.3,0000.0,0000.51,0000.78,0000.41
2021-10-29 10:53:00,,0830.1,5.00,0.00,25.5,24.5,00.0,34.6,27.3,12.3,0000.0,0000.49,0000.74,0000.41
2021-10-29 10:54:00,,0830.1,4.98,0.00,25.5,24.5,00.0,34.6,27.3,12.3,0000.0,0000.50,0000.77,0000.41
2021-10-29 10:55:00,,0830.1,5.00,0.00,25.5,24.5,00.0,34.5,27.3,12.2,0000.0,0000.49,0000.74,0000.41
2021-10-29 10:56:00,,0830.1,5.00,0.00,25.5,24.6,00.0,34.5,27.3,12.2,0000.0,0000.48,0000.72,0000.40
2021-10-29 10:57:00,,0830.1,5.01,0.00,25.5,24.6,00.0,34.5,27.3,12.2,0000.0,0000.47,0000.72,0000.40
2021-10-29 10:58:00,,0830.1,5.01,0.00,25.5,24.6,00.0,34.5,27.4,12.3,0000.0,0000.47,0000.71,0000.40
2021-10-29 10:59:00,,0830.1,4.99,0.00,25.5,24.6,00.0,34.5,27.4,12.3,0000.0,0000.46,0000.69,0000.40
